TimeEST,TemperatureF,Dew PointF,Humidity,Sea Level PressureIn,VisibilityMPH,Wind Direction,Wind SpeedMPH,Gust SpeedMPH,PrecipitationIn,Events,Conditions,WindDirDegrees,DateUTC
12:54 AM,35.1,27.0,72,29.87,10.0,West,4.6,-,N/A,,Overcast,270,2013-03-03 05:54:00
1:54 AM,36.0,27.0,70,29.87,10.0,West,3.5,-,N/A,,Overcast,280,2013-03-03 06:54:00
2:54 AM,37.0,27.0,67,29.85,10.0,NW,6.9,-,N/A,,Overcast,320,2013-03-03 07:54:00
3:54 AM,37.9,25.0,60,29.85,10.0,NNW,9.2,-,N/A,,Overcast,330,2013-03-03 08:54:00
4:54 AM,37.9,21.9,53,29.86,10.0,North,10.4,-,N/A,,Overcast,360,2013-03-03 09:54:00
5:54 AM,37.0,21.0,52,29.87,10.0,NNW,8.1,-,N/A,,Overcast,340,2013-03-03 10:54:00
7:54 AM,37.9,21.9,53,29.90,10.0,WNW,10.4,-,N/A,,Clear,300,2013-03-03 12:54:00
8:54 AM,39.9,21.0,47,29.90,10.0,NW,15.0,-,N/A,,Clear,320,2013-03-03 13:54:00
9:54 AM,42.1,23.0,47,29.90,10.0,NNW,11.5,-,N/A,,Mostly Cloudy,330,2013-03-03 14:54:00
10:54 AM,42.1,19.9,41,29.89,10.0,NW,10.4,20.7,N/A,,Mostly Cloudy,320,2013-03-03 15:54:00
11:54 AM,44.1,21.9,42,29.88,10.0,WNW,12.7,-,N/A,,Mostly Cloudy,300,2013-03-03 16:54:00
12:54 PM,43.0,21.0,42,29.86,10.0,NW,13.8,-,N/A,,Overcast,310,2013-03-03 17:54:00
1:54 PM,43.0,21.0,42,29.84,10.0,WNW,16.1,-,N/A,,Overcast,300,2013-03-03 18:54:00
2:54 PM,45.0,21.0,39,29.83,10.0,West,9.2,-,N/A,,Overcast,280,2013-03-03 19:54:00
3:54 PM,45.0,21.9,40,29.82,10.0,WNW,10.4,-,N/A,,Mostly Cloudy,300,2013-03-03 20:54:00
4:54 PM,46.0,21.9,39,29.82,10.0,West,10.4,-,N/A,,Clear,270,2013-03-03 21:54:00
5:54 PM,42.1,21.9,45,29.84,10.0,West,6.9,-,N/A,,Clear,270,2013-03-03 22:54:00
6:54 PM,42.1,23.0,47,29.85,10.0,SSW,3.5,-,N/A,,Mostly Cloudy,210,2013-03-03 23:54:00
7:54 PM,41.0,24.1,51,29.87,10.0,NE,3.5,-,N/A,,Scattered Clouds,50,2013-03-04 00:54:00
8:54 PM,39.0,28.0,65,29.89,10.0,ESE,3.5,-,N/A,,Overcast,110,2013-03-04 01:54:00
9:54 PM,39.9,28.0,63,29.89,10.0,SSE,3.5,-,N/A,,Overcast,150,2013-03-04 02:54:00
10:54 PM,36.0,28.0,73,29.90,10.0,West,4.6,-,N/A,,Overcast,270,2013-03-04 03:54:00
11:54 PM,37.0,24.1,59,29.91,10.0,NW,6.9,-,N/A,,Mostly Cloudy,310,2013-03-04 04:54:00